User: anonymous   Login
Location: Goheenville
(40.9070°N, 79.3720°W)
Time: 02:23:06
(UTC-04:00)
Language:

Cosmos 1727 Rocket - Orbit

View from above orbital plane
View from above orbital plane
View from above satellite
View from above satellite

Ground track
Ground track

The orbit data is extracted from the following two-line orbital elements,

1 16511U 86008B   15148.28836420  .00000055  00000-0  40727-4 0  9992
2 16511 082.9467 056.7780 0023248 217.9445 255.8737 13.75797642473020
Epoch (UTC): 28 May 2015 06:55:14
Eccentricity: 0.0023248
inclination: 82.9467°
perigee height: 962 km
apogee height: 996 km
right ascension of ascending node: 56.7780°
argument of perigee: 217.9445°
revolutions per day: 13.75797642
mean anomaly at epoch: 255.8737°
orbit number at epoch: 47302

The dashed part of the orbit path shows where the satellite is in the earth's shadow,  

DLR